Tracking 19575 objects as of 18-Feb-2019
HD Live streaming from Space Station
objects crossing your sky now

FLOCK 3P 39

Track FLOCK 3P 39 now!
10-day predictions
FLOCK 3P 39 is classified as:


NORAD ID: 42038
Int'l Code: 2017-008CU
Perigee: 493.2 km
Apogee: 502.1 km
Inclination: 97.4 °
Period: 94.4 minutes
Semi major axis: 6868 km
RCS: Unknown
Launch date: February 15, 2017
Source: United States (US)
Launch site: SRIHARIKOTA (SRI)
aabbcc
Your satellite tracking list
Your tracking list is empty




NASA's NSSDC Master Catalog

Two Line Element Set (TLE):
1 42038U 17008CU  19048.74031309 +.00001210 +00000-0 +51219-4 0  9998
2 42038 097.4206 116.9346 0006444 221.6319 138.4429 15.25095275111420
Source of the keplerian elements: AFSPC